sat.trackr.live / text

‹ back to catalog

UNKNOWN

NORAD 82303

UNKNOWN UNKNOWN UNKNOWN

§ Identity

Operator
Country
Launch date
Launch site
Launch vehicle
Mass (kg)
RCS (m²)

External: N2YO · Heavens-Above

§ Orbital elements

Epoch: 2026-05-23T11:23:34.090368Z

Period
103.14 min
Inclination
81.9098°
Eccentricity
0.0089699
Mean motion
13.96143484 rev/d
Perigee alt
841.8 km
Apogee alt
972.5 km
Semi-major
7,285.3 km
B*
2.1214e-2
RAAN
222.3261°
Arg perigee
192.1747°
Mean anomaly
185.3789°
Rev number
53,692

§ Raw data

UNKNOWN1 82303U          26143.47470012  .00030241  00000+0  21214-1 0  99972 82303  81.9098 222.3261 0089699 192.1747 185.3789 13.96143484536922

JSON: /api/v1/satellites/82303 · /tle

For live sub-satellite position, see the globe view (requires WebGL).

§ Visibility from observer

Set your observer location to see the next 7 days of passes ≥ 10°. The values pass through the URL so the page stays shareable.

No JS? Fill the form by hand. The geolocation button needs JavaScript.